Location: Albany
(35.0000°S, 118.0000°E)
Time: 11:29:00
(UTC-04:00)

ADEOS Rocket - Visible Passes

Search period start: 31 March 2015 00:00
Search period end: 10 April 2015 00:00
Orbit: 859 x 1307 km, 98.7° (Epoch: 31 March)

Date Brightness Start Highest point End Pass type
(mag) Time Alt. Az. Time Alt. Az. Time Alt. Az.
31 Mar 3.4 07:58:02 10° SSE 08:05:09 66° E 08:12:46 10° N visible
31 Mar 5.3 09:44:48 10° SSW 09:50:13 23° WSW 09:55:38 10° WNW visible
01 Apr 4.2 07:10:01 10° SE 07:16:03 29° E 07:22:35 10° NNE visible
01 Apr 4.1 08:54:49 10° S 09:01:43 51° WSW 09:09:00 10° NW visible
02 Apr 5.0 06:25:11 10° ESE 06:26:28 11° E 06:28:31 10° ENE visible
02 Apr 3.3 08:05:44 10° SSE 08:12:59 76° ENE 08:20:43 10° N visible
02 Apr 5.5 09:52:53 10° SSW 09:57:57 20° WSW 10:02:54 10° WNW visible
03 Apr 4.0 07:17:31 10° SE 07:23:58 34° E 07:30:52 10° NNE visible
03 Apr 4.4 09:02:41 10° S 09:09:30 44° WSW 09:16:38 10° NW visible
04 Apr 4.9 06:31:20 10° ESE 06:34:28 14° E 06:38:17 10° ENE visible
04 Apr 3.4 08:13:27 10° SSE 08:20:50 86° ENE 08:28:37 10° NNW visible
04 Apr 5.7 10:01:02 10° SSW 10:05:40 17° WSW 10:10:04 10° W visible
05 Apr 3.9 07:25:03 10° SSE 07:31:52 40° E 07:39:04 10° NNE visible
05 Apr 4.6 09:10:34 10° S 09:17:17 39° WSW 09:24:12 10° NW visible
06 Apr 4.7 06:38:14 10° SE 06:42:28 17° E 06:47:17 10° NE visible
06 Apr 3.5 08:21:13 10° S 08:28:40 83° WSW 08:36:27 10° NNW visible
06 Apr 5.8 10:09:18 10° SSW 10:13:21 15° WSW 10:17:04 10° W visible
07 Apr 3.7 07:32:40 10° SSE 07:39:46 46° E 07:47:12 10° N visible
07 Apr 4.8 09:18:30 10° S 09:25:03 34° WSW 09:31:43 10° NW visible
07 Apr 5.9 17:48:54 10° ESE 17:50:35 12° ESE 17:52:41 10° SE visible
08 Apr 4.6 06:45:23 10° SE 06:50:26 20° E 06:55:59 10° NE visible
08 Apr 3.6 08:29:02 10° S 08:36:29 73° WSW 08:44:14 10° NNW visible
08 Apr 6.0 10:17:46 10° SW 10:21:03 13° WSW 10:23:52 10° W visible
09 Apr 3.6 07:40:19 10° SSE 07:47:39 53° E 07:55:15 10° N visible
09 Apr 5.1 09:26:28 10° S 09:32:49 30° WSW 09:39:10 10° WNW visible
09 Apr 5.7 17:55:23 10° E 17:58:11 14° ESE 18:01:25 10° SSE visible
